| time (UTC) | temp C | wind direction | speed KPH | gust KPH | rain 1hr cm | rain 24hr cm | rain mn cm | humidity % | barometer mb |
| 20260831004557 | 16 | 288 | 27.4 | 48.3 | 0.00 | 0.13 | 0.05 | 44 | 1011.2 |
| 20260831003104 | 16 | 262 | 29.0 | 48.3 | 0.00 | 0.13 | 0.05 | 43 | 1011.1 |
| 20260831001603 | 16 | 275 | 30.6 | 54.7 | 0.00 | 0.13 | 0.05 | 43 | 1011.1 |
| 20260831000106 | 16 | 253 | 29.0 | 53.1 | 0.00 | 0.13 | 0.05 | 43 | 1011.0 |
| 20260830234601 | 17 | 279 | 32.2 | 49.9 | 0.00 | 0.20 | 0.05 | 41 | 1011.0 |
| 20260830233106 | 17 | 265 | 30.6 | 49.9 | 0.00 | 0.20 | 0.05 | 39 | 1011.0 |
| 20260830231607 | 17 | 248 | 33.8 | 53.1 | 0.00 | 0.20 | 0.05 | 41 | 1010.9 |
| 20260830230056 | 17 | 262 | 27.4 | 46.7 | 0.00 | 0.20 | 0.05 | 41 | 1010.8 |
| 20260830224559 | 17 | 288 | 29.0 | 49.9 | 0.00 | 0.20 | 0.05 | 39 | 1010.8 |
| 20260830223103 | 17 | 258 | 24.1 | 53.1 | 0.00 | 0.20 | 0.05 | 41 | 1010.8 |
| 20260830221557 | 17 | 263 | 32.2 | 54.7 | 0.00 | 0.20 | 0.05 | 41 | 1010.9 |
| 20260830220100 | 17 | 268 | 25.7 | 53.1 | 0.00 | 0.20 | 0.05 | 41 | 1011.1 |
| 20260830214553 | 18 | 260 | 29.0 | 49.9 | 0.00 | 0.20 | 0.05 | 40 | 1011.1 |
| 20260830213113 | 16 | 252 | 27.4 | 43.5 | 0.00 | 0.20 | 0.05 | 43 | 1011.3 |
| 20260830211606 | 16 | 240 | 35.4 | 46.7 | 0.00 | 0.20 | 0.05 | 43 | 1011.4 |
| 20260830210056 | 16 | 234 | 33.8 | 48.3 | 0.00 | 0.20 | 0.05 | 43 | 1011.5 |
| 20260830204600 | 17 | 272 | 27.4 | 48.3 | 0.00 | 0.20 | 0.05 | 41 | 1011.5 |
| 20260830203056 | 17 | 274 | 32.2 | 48.3 | 0.00 | 0.20 | 0.05 | 42 | 1011.5 |
| 20260830201603 | 16 | 240 | 27.4 | 48.3 | 0.00 | 0.20 | 0.05 | 43 | 1011.6 |
| 20260830200054 | 17 | 267 | 30.6 | 48.3 | 0.00 | 0.20 | 0.05 | 44 | 1011.6 |
| 20260830194603 | 16 | 261 | 32.2 | 46.7 | 0.00 | 0.20 | 0.05 | 44 | 1011.6 |
| 20260830193056 | 17 | 259 | 32.2 | 51.5 | 0.00 | 0.20 | 0.05 | 42 | 1011.4 |
| 20260830191556 | 18 | 254 | 25.7 | 45.1 | 0.00 | 0.20 | 0.05 | 39 | 1011.3 |
| 20260830190103 | 17 | 262 | 32.2 | 49.9 | 0.00 | 0.20 | 0.05 | 41 | 1011.3 |
| 20260830184557 | 17 | 263 | 29.0 | 46.7 | 0.00 | 0.20 | 0.05 | 41 | 1011.2 |
| 20260830183055 | 17 | 273 | 24.1 | 40.2 | 0.00 | 0.20 | 0.05 | 41 | 1011.1 |
| 20260830181559 | 18 | 244 | 30.6 | 45.1 | 0.00 | 0.20 | 0.05 | 40 | 1011.2 |
| 20260830180100 | 17 | 246 | 25.7 | 38.6 | 0.00 | 0.20 | 0.05 | 40 | 1011.4 |
| 20260830174600 | 17 | 246 | 27.4 | 40.2 | 0.00 | 0.20 | 0.05 | 39 | 1011.2 |
| 20260830173055 | 17 | 243 | 20.9 | 40.2 | 0.00 | 0.20 | 0.05 | 40 | 1011.3 |
| 20260830171602 | 16 | 258 | 29.0 | 41.8 | 0.00 | 0.20 | 0.05 | 41 | 1011.5 |
| 20260830170056 | 17 | 252 | 24.1 | 41.8 | 0.00 | 0.20 | 0.05 | 43 | 1011.5 |
| 20260830164608 | 16 | 259 | 20.9 | 30.6 | 0.00 | 0.20 | 0.05 | 43 | 1011.6 |
| 20260830163103 | 16 | 257 | 19.3 | 27.4 | 0.00 | 0.20 | 0.05 | 51 | 1011.5 |
| 20260830161619 | 15 | 246 | 11.3 | 19.3 | 0.00 | 0.20 | 0.05 | 56 | 1011.6 |
| 20260830160112 | 15 | 248 | 14.5 | 24.1 | 0.00 | 0.20 | 0.05 | 52 | 1012.0 |
| 20260830154610 | 14 | 244 | 6.4 | 14.5 | 0.00 | 0.20 | 0.05 | 54 | 1012.3 |
| 20260830153109 | 14 | 239 | 8.0 | 20.9 | 0.00 | 0.20 | 0.05 | 61 | 1012.1 |
| 20260830151613 | 14 | 252 | 9.7 | 16.1 | 0.00 | 0.20 | 0.05 | 55 | 1012.0 |
| 20260830150121 | 13 | 289 | 9.7 | 16.1 | 0.00 | 0.20 | 0.05 | 64 | 1011.8 |
| 20260830144555 | 12 | 278 | 8.0 | 12.9 | 0.00 | 0.20 | 0.05 | 71 | 1011.9 |
| 20260830143058 | 10 | 275 | 6.4 | 12.9 | 0.00 | 0.20 | 0.05 | 77 | 1011.9 |
| 20260830141556 | 10 | 0 | 3.2 | 11.3 | 0.00 | 0.20 | 0.05 | 79 | 1011.9 |
| 20260830134557 | 10 | 0 | 1.6 | 8.0 | 0.00 | 0.20 | 0.05 | 81 | 1012.1 |
| 20260830133055 | 10 | 0 | 0.0 | 4.8 | 0.03 | 0.20 | 0.05 | 83 | 1012.0 |
| 20260830131604 | 10 | 0 | 0.0 | 8.0 | 0.03 | 0.20 | 0.05 | 84 | 1011.9 |
| 20260830130109 | 10 | 244 | 0.0 | 6.4 | 0.03 | 0.20 | 0.05 | 84 | 1012.0 |
| 20260830124600 | 11 | 0 | 3.2 | 11.3 | 0.03 | 0.20 | 0.05 | 87 | 1011.8 |
| 20260830123054 | 11 | 0 | 1.6 | 8.0 | 0.00 | 0.18 | 0.03 | 88 | 1011.5 |
| 20260830121601 | 11 | 243 | 0.0 | 0.0 | 0.00 | 0.18 | 0.03 | 87 | 1011.5 |
| 20260830120110 | 11 | 0 | 0.0 | 8.0 | 0.00 | 0.18 | 0.03 | 86 | 1011.5 |
| 20260830114607 | 12 | 240 | 0.0 | 6.4 | 0.00 | 0.18 | 0.03 | 85 | 1011.7 |
| 20260830113101 | 12 | 241 | 11.3 | 29.0 | 0.00 | 0.18 | 0.03 | 82 | 1012.0 |
| 20260830111556 | 12 | 275 | 9.7 | 12.9 | 0.00 | 0.18 | 0.03 | 86 | 1012.1 |
| 20260830110100 | 12 | 0 | 0.0 | 14.5 | 0.00 | 0.18 | 0.03 | 84 | 1011.6 |
| 20260830104603 | 12 | 286 | 8.0 | 16.1 | 0.00 | 0.18 | 0.03 | 85 | 1011.9 |
| 20260830103058 | 12 | 280 | 9.7 | 17.7 | 0.00 | 0.18 | 0.03 | 83 | 1011.7 |
| 20260830101556 | 12 | 211 | 4.8 | 6.4 | 0.00 | 0.18 | 0.03 | 87 | 1011.5 |
| 20260830100058 | 12 | 211 | 4.8 | 6.4 | 0.00 | 0.18 | 0.03 | 89 | 1011.3 |
| 20260830094557 | 12 | 211 | 3.2 | 4.8 | 0.00 | 0.18 | 0.03 | 89 | 1011.4 |
| 20260830093058 | 12 | 211 | 3.2 | 8.0 | 0.03 | 0.18 | 0.03 | 89 | 1011.4 |
| 20260830091556 | 12 | 0 | 0.0 | 0.0 | 0.03 | 0.18 | 0.03 | 89 | 1011.4 |
| 20260830090122 | 12 | 0 | 0.0 | 6.4 | 0.03 | 0.18 | 0.03 | 89 | 1011.1 |
| 20260830084559 | 12 | 211 | 9.7 | 17.7 | 0.03 | 0.18 | 0.03 | 89 | 1011.8 |
| 20260830083056 | 12 | 219 | 14.5 | 22.5 | 0.00 | 0.15 | 0.00 | 88 | 1012.3 |
| 20260830081559 | 12 | 217 | 14.5 | 33.8 | 0.00 | 0.15 | 0.00 | 87 | 1012.4 |
| 20260830080100 | 12 | 208 | 27.4 | 35.4 | 0.00 | 0.15 | 0.00 | 87 | 1012.7 |
| 20260830074633 | 13 | 209 | 27.4 | 43.5 | 0.00 | 0.15 | 0.00 | 87 | 1012.5 |
| 20260830073101 | 13 | 213 | 22.5 | 33.8 | 0.00 | 0.15 | 0.00 | 88 | 1012.3 |
| 20260830071601 | 13 | 219 | 17.7 | 24.1 | 0.00 | 0.15 | 0.00 | 90 | 1012.2 |
| 20260830070110 | 13 | 236 | 8.0 | 14.5 | 0.00 | 0.15 | 0.00 | 90 | 1011.8 |
| 20260830064605 | 13 | 239 | 3.2 | 11.3 | 0.00 | 0.15 | 0.00 | 90 | 1011.6 |
| 20260830063103 | 13 | 239 | 4.8 | 16.1 | 0.00 | 0.15 | 0.00 | 89 | 1011.5 |
| 20260830061558 | 13 | 233 | 6.4 | 11.3 | 0.00 | 0.15 | 0.00 | 89 | 1011.6 |
| 20260830060112 | 13 | 136 | 3.2 | 8.0 | 0.00 | 0.15 | 0.00 | 88 | 1011.3 |
| 20260830054622 | 12 | 0 | 0.0 | 4.8 | 0.03 | 0.15 | 0.15 | 88 | 1011.0 |
| 20260830053105 | 12 | 0 | 0.0 | 0.0 | 0.03 | 0.15 | 0.15 | 87 | 1010.9 |
| 20260830051556 | 13 | 131 | 3.2 | 8.0 | 0.03 | 0.15 | 0.15 | 86 | 1010.8 |
| 20260830050055 | 13 | 132 | 6.4 | 14.5 | 0.03 | 0.15 | 0.15 | 83 | 1010.9 |
| 20260830044615 | 13 | 0 | 0.0 | 0.0 | 0.03 | 0.13 | 0.13 | 76 | 1010.8 |
| 20260830043057 | 14 | 0 | 0.0 | 6.4 | 0.03 | 0.13 | 0.13 | 74 | 1010.6 |
| 20260830041632 | 14 | 320 | 9.7 | 20.9 | 0.03 | 0.13 | 0.13 | 78 | 1010.6 |
| 20260830040105 | 14 | 319 | 16.1 | 27.4 | 0.03 | 0.13 | 0.13 | 83 | 1010.6 |
| 20260830034601 | 15 | 224 | 25.7 | 40.2 | 0.00 | 0.10 | 0.10 | 83 | 1012.3 |
| 20260830033059 | 14 | 338 | 4.8 | 9.7 | 0.00 | 0.10 | 0.10 | 84 | 1011.3 |
| 20260830031601 | 14 | 0 | 0.0 | 0.0 | 0.00 | 0.10 | 0.10 | 83 | 1010.9 |
| 20260830030137 | 13 | 0 | 0.0 | 0.0 | 0.00 | 0.10 | 0.10 | 84 | 1010.7 |
| 20260830024557 | 13 | 0 | 0.0 | 0.0 | 0.00 | 0.10 | 0.10 | 84 | 1010.7 |
| 20260830023053 | 13 | 0 | 0.0 | 3.2 | 0.00 | 0.10 | 0.10 | 82 | 1010.4 |
| 20260830021600 | 14 | 9 | 3.2 | 6.4 | 0.00 | 0.10 | 0.10 | 81 | 1010.5 |
| 20260830020056 | 15 | 9 | 3.2 | 14.5 | 0.00 | 0.10 | 0.10 | 81 | 1010.2 |
| 20260830014614 | 15 | 5 | 8.0 | 12.9 | 0.00 | 0.13 | 0.10 | 81 | 1010.1 |
| 20260830013111 | 15 | 360 | 6.4 | 17.7 | 0.00 | 0.13 | 0.10 | 79 | 1010.4 |
| 20260830011607 | 15 | 340 | 11.3 | 24.1 | 0.03 | 0.13 | 0.10 | 77 | 1010.4 |
| 20260830010107 | 15 | 330 | 11.3 | 24.1 | 0.03 | 0.13 | 0.10 | 79 | 1010.9 |